Time,TemperatureF,DewpointF,PressureIn,WindDirection,WindDirectionDegrees,WindSpeedMPH,WindSpeedGustMPH,Humidity,HourlyPrecipIn,Conditions,Clouds,dailyrainin,SoftwareType,DateUTC
2013-08-02 00:02:00,66.0,63.0,29.91,SW,225,0.0,0.0,89,0.00,,,0.00,,2013-08-02 04:02:00,
2013-08-02 00:12:00,66.0,63.0,29.91,SW,225,0.0,0.0,89,0.00,,,0.00,,2013-08-02 04:12:00,
2013-08-02 00:22:00,66.0,63.0,29.88,SW,225,0.0,0.0,90,0.00,,,5.19,,2013-08-02 04:22:00,
2013-08-02 00:33:00,66.0,63.0,29.88,SW,225,0.0,0.0,90,0.00,,,0.00,,2013-08-02 04:33:00,
2013-08-02 00:53:00,67.0,64.0,29.88,SW,225,0.0,0.0,91,0.00,,,0.00,,2013-08-02 04:53:00,
2013-08-02 01:02:00,67.0,64.0,29.88,North,0,0.0,0.0,91,0.00,,,0.00,,2013-08-02 05:02:00,
2013-08-02 01:12:00,66.0,63.0,29.85,SW,225,0.0,0.0,91,0.00,,,0.00,,2013-08-02 05:12:00,
2013-08-02 01:32:00,67.0,64.0,29.85,SW,225,0.0,0.0,91,0.00,,,5.19,,2013-08-02 05:32:00,
2013-08-02 01:43:00,67.0,64.0,29.85,SW,225,0.0,0.0,91,0.00,,,0.00,,2013-08-02 05:43:00,
2013-08-02 01:53:00,67.0,64.0,29.85,SW,225,0.0,0.0,91,0.00,,,0.00,,2013-08-02 05:53:00,
2013-08-02 02:02:00,66.0,63.0,29.83,North,0,0.0,0.0,91,0.00,,,0.00,,2013-08-02 06:02:00,
2013-08-02 02:12:00,66.0,63.0,29.83,SW,225,0.0,0.0,91,0.00,,,0.00,,2013-08-02 06:12:00,
2013-08-02 02:22:00,66.0,63.0,29.83,North,0,0.0,0.0,91,0.00,,,0.00,,2013-08-02 06:22:00,
2013-08-02 02:33:00,66.0,63.0,29.83,SW,225,0.0,0.0,91,0.00,,,0.00,,2013-08-02 06:33:00,
2013-08-02 02:43:00,66.0,63.0,29.83,SW,225,0.0,0.0,91,0.00,,,0.00,,2013-08-02 06:43:00,
2013-08-02 02:52:00,66.0,63.0,29.83,SW,225,0.0,0.0,90,0.00,,,0.00,,2013-08-02 06:52:00,
2013-08-02 03:02:00,66.0,63.0,29.83,SW,225,0.0,0.0,90,0.00,,,0.00,,2013-08-02 07:02:00,
2013-08-02 03:12:00,66.0,63.0,29.83,SW,225,0.0,0.0,90,0.00,,,0.00,,2013-08-02 07:12:00,
2013-08-02 03:22:00,66.0,63.0,29.80,SW,225,0.0,0.0,90,0.00,,,0.00,,2013-08-02 07:22:00,
2013-08-02 03:33:00,66.0,63.0,29.80,SW,225,0.0,0.0,91,0.00,,,0.00,,2013-08-02 07:33:00,
2013-08-02 03:44:00,66.0,63.0,29.80,SW,225,0.0,0.0,91,0.00,,,0.00,,2013-08-02 07:44:00,
2013-08-02 03:53:00,66.0,63.0,29.80,SW,225,0.0,0.0,91,0.00,,,0.00,,2013-08-02 07:53:00,
2013-08-02 04:02:00,66.0,63.0,29.80,SE,135,0.0,4.0,91,0.00,,,0.00,,2013-08-02 08:02:00,
2013-08-02 04:12:00,66.0,63.0,29.80,SE,135,0.0,0.0,91,0.00,,,0.00,,2013-08-02 08:12:00,
2013-08-02 04:33:00,67.0,65.0,29.80,North,0,0.0,0.0,92,0.00,,,0.00,,2013-08-02 08:33:00,
2013-08-02 04:43:00,68.0,66.0,29.80,SE,135,0.0,0.0,92,0.00,,,0.00,,2013-08-02 08:43:00,
2013-08-02 04:54:00,68.0,66.0,29.83,SE,135,0.0,0.0,92,0.00,,,0.00,,2013-08-02 08:54:00,
2013-08-02 05:02:00,68.0,66.0,29.80,South,180,0.0,0.0,92,0.00,,,5.19,,2013-08-02 09:02:00,
2013-08-02 05:12:00,68.0,66.0,29.80,South,180,0.0,0.0,92,0.00,,,0.00,,2013-08-02 09:12:00,
2013-08-02 05:23:00,68.0,66.0,29.80,South,180,0.0,0.0,92,0.00,,,0.00,,2013-08-02 09:23:00,
2013-08-02 05:44:00,68.0,66.0,29.80,South,180,0.0,0.0,92,0.00,,,0.00,,2013-08-02 09:44:00,
2013-08-02 05:53:00,68.0,66.0,29.83,South,180,0.0,0.0,92,0.00,,,0.00,,2013-08-02 09:53:00,
2013-08-02 06:03:00,68.0,66.0,29.83,South,180,0.0,0.0,92,0.00,,,5.19,,2013-08-02 10:03:00,
2013-08-02 06:12:00,68.0,66.0,29.80,South,180,0.0,0.0,92,0.00,,,0.00,,2013-08-02 10:12:00,
2013-08-02 06:23:00,68.0,66.0,29.80,South,180,0.0,0.0,92,0.00,,,0.00,,2013-08-02 10:23:00,
2013-08-02 06:33:00,68.0,66.0,29.83,North,0,0.0,4.0,92,0.00,,,0.00,,2013-08-02 10:33:00,
2013-08-02 06:43:00,68.0,66.0,29.83,SSE,158,0.0,0.0,92,0.00,,,0.00,,2013-08-02 10:43:00,
2013-08-02 06:52:00,68.0,66.0,29.83,SSE,158,0.0,0.0,92,0.00,,,5.19,,2013-08-02 10:52:00,
2013-08-02 07:02:00,68.0,66.0,29.80,SSE,158,0.0,0.0,92,0.00,,,0.00,,2013-08-02 11:02:00,
2013-08-02 07:12:00,68.0,66.0,29.80,SSE,158,0.0,0.0,92,0.00,,,0.00,,2013-08-02 11:12:00,
2013-08-02 07:23:00,68.0,66.0,29.83,SSE,158,0.0,0.0,93,0.00,,,0.00,,2013-08-02 11:23:00,
2013-08-02 07:33:00,68.0,66.0,29.83,SSE,158,0.0,0.0,93,0.00,,,0.00,,2013-08-02 11:33:00,
2013-08-02 07:43:00,68.0,66.0,29.83,SSE,158,0.0,0.0,93,0.00,,,0.00,,2013-08-02 11:43:00,
2013-08-02 07:52:00,68.0,66.0,29.83,SSE,158,0.0,0.0,93,0.00,,,0.00,,2013-08-02 11:52:00,
2013-08-02 08:02:00,68.0,66.0,29.83,SSE,158,0.0,0.0,93,0.00,,,0.00,,2013-08-02 12:02:00,
2013-08-02 08:12:00,69.0,67.0,29.83,SSE,158,0.0,0.0,93,0.00,,,0.00,,2013-08-02 12:12:00,
2013-08-02 08:22:00,69.0,67.0,29.83,SSE,158,0.0,0.0,93,0.00,,,0.00,,2013-08-02 12:22:00,
2013-08-02 08:32:00,69.0,67.0,29.83,SSE,158,0.0,0.0,93,0.00,,,0.00,,2013-08-02 12:32:00,
2013-08-02 08:43:00,69.0,67.0,29.83,SSE,158,0.0,0.0,93,0.00,,,0.00,,2013-08-02 12:43:00,
2013-08-02 08:52:00,69.0,67.0,29.83,SSE,158,0.0,0.0,93,0.00,,,0.00,,2013-08-02 12:52:00,
2013-08-02 09:03:00,69.0,67.0,29.83,SSE,158,0.0,0.0,93,0.00,,,0.00,,2013-08-02 13:03:00,
2013-08-02 09:12:00,69.0,67.0,29.83,SSE,158,0.0,0.0,93,0.00,,,0.00,,2013-08-02 13:12:00,
2013-08-02 09:33:00,69.0,67.0,29.83,SSE,158,0.0,0.0,93,0.00,,,0.00,,2013-08-02 13:33:00,
2013-08-02 09:43:00,69.0,67.0,29.83,North,0,0.0,0.0,93,0.00,,,0.00,,2013-08-02 13:43:00,
2013-08-02 10:02:00,69.0,67.0,29.83,SSE,158,0.0,0.0,93,0.00,,,0.00,,2013-08-02 14:02:00,
2013-08-02 10:12:00,69.0,67.0,29.83,SSE,158,0.0,0.0,93,0.00,,,0.00,,2013-08-02 14:12:00,
2013-08-02 10:22:00,69.0,67.0,29.83,South,180,0.0,0.0,93,0.00,,,0.00,,2013-08-02 14:22:00,
2013-08-02 10:32:00,69.0,67.0,29.83,SSW,202,0.0,0.0,93,0.00,,,0.00,,2013-08-02 14:32:00,
2013-08-02 10:43:00,70.0,68.0,29.83,SSW,202,0.0,0.0,93,0.00,,,0.00,,2013-08-02 14:43:00,
2013-08-02 10:53:00,71.0,69.0,29.83,SSW,202,0.0,0.0,93,0.00,,,0.00,,2013-08-02 14:53:00,
2013-08-02 11:03:00,71.0,69.0,29.83,SSE,158,0.0,0.0,93,0.00,,,0.00,,2013-08-02 15:03:00,
2013-08-02 11:12:00,71.0,69.0,29.83,North,0,0.0,0.0,93,0.00,,,0.00,,2013-08-02 15:12:00,
2013-08-02 11:22:00,71.0,69.0,29.83,North,0,0.0,0.0,93,0.00,,,0.00,,2013-08-02 15:22:00,
2013-08-02 11:32:00,72.0,70.0,29.83,SW,225,0.0,0.0,93,0.00,,,0.00,,2013-08-02 15:32:00,
2013-08-02 11:43:00,72.0,70.0,29.83,SW,225,0.0,0.0,93,0.00,,,0.00,,2013-08-02 15:43:00,
2013-08-02 11:52:00,73.0,71.0,29.83,SW,225,0.0,0.0,93,0.00,,,0.00,,2013-08-02 15:52:00,
2013-08-02 12:02:00,73.0,71.0,29.83,SW,225,0.0,0.0,93,0.00,,,0.00,,2013-08-02 16:02:00,
2013-08-02 12:22:00,74.0,71.0,29.83,West,270,0.0,0.0,91,0.00,,,0.00,,2013-08-02 16:22:00,
2013-08-02 12:32:00,74.0,71.0,29.83,West,270,0.0,0.0,91,0.00,,,0.00,,2013-08-02 16:32:00,
2013-08-02 12:43:00,75.0,72.0,29.83,WSW,248,0.0,0.0,89,0.00,,,0.00,,2013-08-02 16:43:00,
2013-08-02 12:52:00,76.0,72.0,29.83,West,270,0.0,0.0,88,0.00,,,0.00,,2013-08-02 16:52:00,
2013-08-02 13:02:00,76.0,72.0,29.83,West,270,0.0,0.0,86,0.00,,,0.00,,2013-08-02 17:02:00,
2013-08-02 13:12:00,77.0,72.0,29.83,West,270,0.0,3.0,86,0.00,,,0.00,,2013-08-02 17:12:00,
2013-08-02 13:35:00,77.0,72.0,29.83,North,0,0.0,3.0,85,0.00,,,0.00,,2013-08-02 17:35:00,
2013-08-02 13:43:00,78.0,73.0,29.83,North,0,0.0,0.0,84,0.00,,,0.00,,2013-08-02 17:43:00,
2013-08-02 13:52:00,78.0,73.0,29.83,North,0,0.0,0.0,84,0.00,,,0.00,,2013-08-02 17:52:00,
2013-08-02 14:12:00,79.0,72.0,29.83,North,0,0.0,0.0,80,0.00,,,0.00,,2013-08-02 18:12:00,
2013-08-02 14:32:00,80.0,72.0,29.80,North,0,0.0,0.0,77,0.00,,,0.00,,2013-08-02 18:32:00,
2013-08-02 14:43:00,80.0,71.0,29.83,North,0,0.0,0.0,75,0.00,,,0.00,,2013-08-02 18:43:00,
2013-08-02 14:52:00,80.0,71.0,29.83,North,0,0.0,0.0,75,0.00,,,0.00,,2013-08-02 18:52:00,
2013-08-02 15:02:00,80.0,71.0,29.83,North,0,0.0,0.0,75,0.00,,,0.00,,2013-08-02 19:02:00,
2013-08-02 15:12:00,80.0,71.0,29.83,North,0,0.0,0.0,75,0.00,,,0.00,,2013-08-02 19:12:00,
2013-08-02 15:32:00,81.0,72.0,29.83,North,0,0.0,0.0,74,0.00,,,0.00,,2013-08-02 19:32:00,
2013-08-02 15:43:00,81.0,72.0,29.83,North,0,0.0,0.0,74,0.00,,,0.00,,2013-08-02 19:43:00,
2013-08-02 15:52:00,81.0,72.0,29.83,North,0,0.0,0.0,74,0.00,,,0.00,,2013-08-02 19:52:00,
2013-08-02 16:02:00,81.0,72.0,29.83,North,0,0.0,0.0,73,0.00,,,5.19,,2013-08-02 20:02:00,
2013-08-02 18:03:00,81.0,69.0,29.83,North,0,0.0,0.0,67,0.00,,,0.00,,2013-08-02 22:03:00,
2013-08-02 18:12:00,81.0,69.0,29.83,North,0,0.0,0.0,67,0.00,,,0.00,,2013-08-02 22:12:00,
2013-08-02 18:22:00,79.0,68.0,29.83,North,0,0.0,0.0,69,0.00,,,0.00,,2013-08-02 22:22:00,
2013-08-02 18:32:00,76.0,66.0,29.83,West,270,0.0,0.0,72,0.00,,,0.00,,2013-08-02 22:32:00,
2013-08-02 18:43:00,76.0,67.0,29.83,North,0,0.0,0.0,73,0.00,,,0.00,,2013-08-02 22:43:00,
2013-08-02 18:52:00,76.0,67.0,29.83,North,0,0.0,0.0,73,0.00,,,0.00,,2013-08-02 22:52:00,
2013-08-02 19:02:00,75.0,67.0,29.83,NNW,338,0.0,5.0,75,0.00,,,0.00,,2013-08-02 23:02:00,
2013-08-02 19:12:00,75.0,67.0,29.83,NNW,338,0.0,5.0,75,0.00,,,0.00,,2013-08-02 23:12:00,
2013-08-02 19:22:00,75.0,67.0,29.83,NNW,338,0.0,5.0,75,0.00,,,0.00,,2013-08-02 23:22:00,
2013-08-02 19:32:00,74.0,66.0,29.83,North,0,0.0,0.0,75,0.00,,,0.00,,2013-08-02 23:32:00,
2013-08-02 19:43:00,74.0,66.0,29.83,North,0,0.0,0.0,75,0.00,,,0.00,,2013-08-02 23:43:00,
2013-08-02 19:53:00,74.0,66.0,29.85,North,0,0.0,0.0,77,0.00,,,5.19,,2013-08-02 23:53:00,
2013-08-02 20:02:00,73.0,66.0,29.85,North,0,0.0,0.0,78,0.00,,,0.00,,2013-08-03 00:02:00,
2013-08-02 20:12:00,73.0,66.0,29.85,North,0,0.0,0.0,78,0.00,,,0.00,,2013-08-03 00:12:00,
2013-08-02 20:22:00,73.0,66.0,29.85,North,0,0.0,0.0,79,0.00,,,0.00,,2013-08-03 00:22:00,
2013-08-02 20:33:00,73.0,66.0,29.85,North,0,0.0,0.0,79,0.00,,,0.00,,2013-08-03 00:33:00,
2013-08-02 20:43:00,72.0,65.0,29.85,North,0,0.0,0.0,80,0.00,,,0.00,,2013-08-03 00:43:00,
2013-08-02 20:52:00,72.0,65.0,29.85,North,0,0.0,0.0,80,0.00,,,0.00,,2013-08-03 00:52:00,
2013-08-02 21:03:00,72.0,66.0,29.85,North,0,0.0,0.0,81,0.00,,,5.19,,2013-08-03 01:03:00,
2013-08-02 21:12:00,72.0,66.0,29.85,North,0,0.0,0.0,81,0.00,,,5.19,,2013-08-03 01:12:00,
2013-08-02 21:22:00,72.0,66.0,29.85,North,0,0.0,0.0,81,0.00,,,5.19,,2013-08-03 01:22:00,
2013-08-02 21:33:00,72.0,66.0,29.85,North,0,0.0,0.0,81,0.00,,,5.19,,2013-08-03 01:33:00,
2013-08-02 21:42:00,72.0,66.0,29.88,North,0,0.0,0.0,81,0.00,,,0.00,,2013-08-03 01:42:00,
2013-08-02 21:53:00,72.0,66.0,29.88,North,0,0.0,0.0,81,0.00,,,0.00,,2013-08-03 01:53:00,
2013-08-02 22:02:00,72.0,66.0,29.88,North,0,0.0,0.0,81,0.00,,,0.00,,2013-08-03 02:02:00,
2013-08-02 22:12:00,71.0,66.0,29.88,North,0,0.0,0.0,83,0.00,,,0.00,,2013-08-03 02:12:00,
2013-08-02 22:22:00,71.0,66.0,29.88,North,0,0.0,0.0,83,0.00,,,0.00,,2013-08-03 02:22:00,
2013-08-02 22:32:00,71.0,66.0,29.88,North,0,0.0,0.0,83,0.00,,,0.00,,2013-08-03 02:32:00,
2013-08-02 22:52:00,71.0,66.0,29.88,North,0,0.0,0.0,83,0.00,,,0.00,,2013-08-03 02:52:00,
2013-08-02 23:43:00,71.0,66.0,29.88,North,0,0.0,0.0,83,0.00,,,5.19,,2013-08-03 03:43:00,
2013-08-02 23:53:00,71.0,66.0,29.88,North,0,0.0,0.0,83,0.00,,,5.19,,2013-08-03 03:53:00,